Location: Mactaquac Provincial Park
(45.9573°N, 66.8897°W)
Time: 04:57:13
(UTC-03:00)

Cosmos 1867 - Visible Passes

Search period start: 28 May 2016 00:00
Search period end: 07 June 2016 00:00
Orbit: 773 x 803 km, 65.0° (Epoch: 28 May)

Date Brightness Start Highest point End Pass type
(mag) Time Alt. Az. Time Alt. Az. Time Alt. Az.
28 May 3.7 01:33:14 51° SSE 01:34:08 57° ESE 01:39:31 10° NE visible
28 May 5.0 03:13:52 13° W 03:18:03 31° NW 03:22:55 10° NNE visible
28 May 6.1 05:01:20 10° NW 05:03:28 12° NNW 05:05:35 10° N visible
29 May 4.0 01:02:04 42° SE 01:02:34 43° ESE 01:07:44 10° NE visible
29 May 4.7 02:42:42 18° WSW 02:46:14 38° NW 02:51:23 10° NNE visible
29 May 6.0 04:28:46 10° NW 04:31:26 13° NNW 04:34:07 10° N visible
30 May 4.4 00:30:50 32° ESE 00:31:03 32° ESE 00:35:53 10° NE visible
30 May 4.3 02:11:28 24° WSW 02:14:29 48° NW 02:19:48 10° NNE visible
30 May 6.0 03:56:16 10° WNW 03:59:26 15° NNW 04:02:38 10° NNE visible
30 May 4.8 23:59:32 24° ESE 23:59:34 24° ESE 00:03:53 10° ENE visible
31 May 3.9 01:40:09 30° WSW 01:42:46 61° NW 01:48:13 10° NNE visible
31 May 5.9 03:23:49 10° WNW 03:27:29 18° NNW 03:31:09 10° NNE visible
31 May 5.1 23:28:08 18° ESE 23:28:08 18° ESE 23:31:43 10° ENE visible
01 Jun 3.6 01:08:44 36° SW 01:11:04 79° NW 01:16:36 10° NE visible
01 Jun 5.8 02:51:28 10° W 02:55:33 21° NNW 02:59:39 10° NNE visible
01 Jun 6.5 04:40:36 10° NNW 04:41:23 10° N 04:42:10 10° N visible
01 Jun 5.4 22:56:36 13° ESE 22:56:44 13° ESE 22:59:05 10° E visible
02 Jun 3.5 00:37:13 37° SSW 00:39:26 80° ESE 00:44:57 10° NE visible
02 Jun 5.5 02:19:12 10° W 02:23:39 25° NW 02:28:08 10° NNE visible
02 Jun 6.4 04:07:55 10° NNW 04:09:19 11° N 04:10:44 10° N visible
03 Jun 3.6 00:05:33 34° S 00:07:50 61° ESE 00:13:15 10° NE visible
03 Jun 5.3 01:47:02 10° W 01:51:48 30° NW 01:56:37 10° NNE visible
03 Jun 6.3 03:35:15 10° NW 03:37:16 12° NNW 03:39:16 10° N visible
03 Jun 3.9 23:33:40 27° S 23:36:16 45° ESE 23:41:29 10° NE visible
04 Jun 5.0 01:14:57 10° WSW 01:19:59 36° NW 01:25:04 10° NNE visible
04 Jun 6.3 03:02:41 10° NW 03:05:14 13° NNW 03:07:48 10° N visible
04 Jun 6.7 04:50:22 10° N 04:51:26 10° N 04:52:29 10° NNE visible
04 Jun 4.2 23:01:31 18° SSE 23:04:44 34° ESE 23:09:39 10° NE visible
05 Jun 4.6 00:42:58 10° WSW 00:48:13 46° NW 00:53:30 10° NNE visible
05 Jun 6.2 02:30:09 10° WNW 02:33:14 15° NNW 02:36:19 10° NNE visible
05 Jun 6.8 04:18:59 10° N 04:19:22 10° N 04:19:44 10° N visible
05 Jun 4.6 22:28:53 10° SSE 22:33:15 26° ESE 22:37:42 10° ENE visible
06 Jun 4.1 00:11:06 10° SW 00:16:29 58° NW 00:21:55 10° NNE visible
06 Jun 6.2 01:57:42 10° WNW 02:01:15 17° NNW 02:04:50 10° NNE visible
06 Jun 4.9 21:58:04 10° SSE 22:01:48 19° ESE 22:05:34 10° ENE visible
06 Jun 3.8 23:39:21 10° SW 23:44:48 75° NW 23:50:19 10° NNE visible
